Location: New York
(40.7140°N, 74.0060°W)
Time: 04:48:35
(UTC-04:00)

ISS - Visible Passes

Search period start: 18 April 2015 00:00
Search period end: 28 April 2015 00:00
Orbit: 395 x 404 km, 51.6° (Epoch: 17 April)

Date Brightness Start Highest point End Pass type
(mag) Time Alt. Az. Time Alt. Az. Time Alt. Az.
18 Apr -3.4 21:22:05 10° NW 21:25:20 72° NE 21:25:26 71° NE visible
19 Apr -2.4 20:28:18 10° NW 20:31:24 38° NNE 20:33:46 15° E visible
19 Apr -0.9 22:04:58 10° WNW 22:06:19 18° W 22:06:19 18° W visible
20 Apr -2.8 21:10:42 10° WNW 21:13:52 48° SW 21:14:40 37° S visible
21 Apr -3.4 20:16:41 10° NW 20:19:57 81° NE 20:23:03 11° SE visible
21 Apr -0.4 21:55:05 10° WSW 21:55:36 11° SW 21:55:36 11° SW visible
22 Apr -1.3 20:59:32 10° W 21:02:06 21° SW 21:04:01 13° S visible
